Location: Cutler
(25.6150°N, 80.3110°W)
Time: 07:00:45
(UTC-05:00)

Hubble Space Telescope - Pass Details

Date: 14 November 2017
Orbit: 537 x 541 km, 28.5° (Epoch: 20 November)

Event Time Altitude Azimuth Distance (km) Brightness Sun altitude
Exits shadow 05:05:16 12° 201° (SSW) 1,623 3.1 -21.0°
Maximum altitude 05:07:58 22° 154° (SSE) 1,184 2.9 -20.4°
Drops below altitude 10° 05:11:12 10° 102° (ESE) 1,780 4.7 -19.7°
Sets 05:13:49 0° 87° (E) 2,673 5.8 -19.2°
